Regional Weather Roundup
Issued by NWS

Home | Current Version | Previous Version | Text Only | Print | Product List | Glossary On
Versions: 1 2 3 4 5 6 7 8 9 10 11 12 13 14 15 16 17 18 19 20 21 22 23 24 25 26 27 28 29 30 31 32 33 34 35 36 37 38 39 40 41 42 43 44 45 46 47 48 49 50
000
ASUS43 KTOP 221659
RWRKS

WEATHER ROUNDUP FOR KANSAS
NATIONAL WEATHER SERVICE GOODLAND KS
1100 AM CST WED NOV 22 2017

NOTE:  "FAIR" INDICATES FEW OR NO CLOUDS BELOW 12,000 FEET WITH NO
SIGNIFICANT WEATHER AND/OR OBSTRUCTIONS TO VISIBILITY.

KSZ001>006-013>018-027>032-041>047-221800-
NORTHWEST KANSAS

CITY           SKY/WX    TMP DP  RH WIND       PRES   REMARKS
GOODLAND       SUNNY     60  33  36 W7        30.21S
HAYS           SUNNY     44  18  35 S15       30.30F
HILL CITY      CLOUDY    47  25  42 SW17G23   30.26F
RUSSELL        SUNNY     41  16  36 S17       30.31F
$$

KSZ061>065-074>080-084>089-221800-
SOUTHWEST KANSAS

CITY           SKY/WX    TMP DP  RH WIND       PRES   REMARKS
DODGE CITY     SUNNY     47  19  33 S21       30.31F
GARDEN CITY    CLOUDY    48  27  44 S17G25    30.27F
GREAT BEND     SUNNY     41  14  33 S14       30.35F
LIBERAL        SUNNY     49  28  44 S16       30.30F
$$

KSZ066>073-081>083-090>101-221800-
SOUTHEAST KANSAS

CITY           SKY/WX    TMP DP  RH WIND       PRES   REMARKS
CHANUTE        SUNNY     35  17  47 CALM      30.43F
COFFEYVILLE    SUNNY     35  17  47 MISG      30.44F
HUTCHINSON     MOSUNNY   34  16  47 SW8       30.39F
MEDICINE LODGE   N/A     36  15  42 SW8       30.40F
NEWTON         SUNNY     33  14  45 SW9       30.40F
PARSONS        SUNNY     36  18  48 VRB3      30.44F
WICHITA INTL   MOSUNNY   34  16  47 SW5       30.42F
WICHITA JABRA  CLOUDY    35  15  44 SW8       30.42S
WICHITA MCCONL CLOUDY    33  13  43 W5        30.42F
WINFIELD       SUNNY     35  17  47 SW5       30.44F
$$

KSZ007>012-019>026-033>040-048>060-102>105-221800-
NORTHEAST KANSAS

CITY           SKY/WX    TMP DP  RH WIND       PRES   REMARKS
CONCORDIA      CLOUDY    32  15  49 S14       30.35F WCI  22
EMPORIA        SUNNY     33  14  45 SW7       30.42F
LAWRENCE       SUNNY     31  15  52 S5        30.43F
MANHATTAN      SUNNY     33  15  47 SW8       30.42F
OLATHE IND     SUNNY     32  16  51 VRB3      30.42F
OLATHE EXE     SUNNY     31  15  52 S6        30.41F
SALINA         CLOUDY    36  16  44 SW10      30.40F WCI  28
TOPEKA BILLARD SUNNY     34  16  47 VRB5      30.42F
TOPEKA FORBES  SUNNY     34  16  47 SW5       30.41F
$$




USA.gov is the U.S. government's official web portal to all federal, state and local government web resources and services.